T16

operational
NORAD ID: 44333 Int'l Des: 2019-034 Owner: DTVA Country: US
HEOCIRCULARGSOGEO

About T16

Description loading...

Live Position

Loading 3D Globe...

Upcoming Passes

Altitude History

Altitude vs Time

uPlot chart will show altitude changes over time

Two-Line Element Set

1 44333U 19034A 26061.17609227 -.00000132 00000-0 00000+0 0 9999
2 44333 0.0196 102.0192 0000686 71.6289 308.8289 1.00267061 24561
Epoch: Mar 2, 2026 • Age: 32 hours

Current Status

Altitude 35784.6 km
Velocity 3.07 km/s
Sub-Earth Point 0.04°N, 100.87°W
Launch Date Jun 20, 2019
Age 6.7 years
Type other

Technical Details

Classification Payload
Mass 6330.00 kg
Dry Mass 3000.00 kg
Total Mass 6330.00 kg
Length 3.90 m
Diameter 2.40 m
Span 30.80 m
Shape Box + 2 panels
Manufacturer ADST
Bus Type Eurostar 3000LXH
Phase Status In Orbit
Owner/State DTVA/US

Large Constellations

Loading constellations...